Location: Akgöl Batakl???
(38.9482°N, 31.8837°E)
Time: 11:28:00
(UTC+00:00)

ATLAS 3B R/B - Pass Details

Date: 08 May 2026
Orbit: 937 x 1256 km, 63.8° (Epoch: 6 June)

Event Time Altitude Azimuth Distance (km) Brightness Sun altitude
Rises 17:29:49 0° 330° (NNW) 4,204 6.9 -7.5°
Reaches altitude 10° 17:33:01 10° 340° (NNW) 3,216 6.0 -8.0°
Maximum altitude 17:39:56 34° 43° (NE) 1,885 3.9 -9.2°
Enters shadow 17:46:17 11° 105° (ESE) 2,987 4.4 -10.2°
